This demonstration page uses our WeatherBlox Daily Observations layout. Learn more.

Left ArrowRight Arrow

Hourly Observations for July 19, 2016

Temp ( °F °C ) Dew Point ( °F °C ) Humidity (%) Winds ( mph kmh ) Pressure ( in mb ) Visibility ( mi km ) Precip ( " mm )
12:15 am 00:15 Clear 76 24.6 71 21.5 83 83 SE 7 11 30.00 1016 10 16 N/A
12:35 am 00:35 Clear 76 24.3 71 21.5 84 84 SSE 9 15 30.03 1017 10 16 N/A
12:55 am 00:55 Clear 76 24.5 70 21.3 82 82 SSE 8 13 30.00 1016 10 16 N/A
1:15 am 01:15 Clear 76 24.6 70 21 80 80 SSE 5 7 30.00 1016 10 16 N/A
1:35 am 01:35 Clear 76 24.5 70 21 81 81 NW 14 22 30.00 1016 10 16 N/A
1:55 am 01:55 Partly Cloudy 73 22.8 64 17.8 74 74 NW 29 46 30.09 1019 10 16 N/A
2:15 am 02:15 Partly Cloudy with Light Rain 71 21.5 65 18.5 83 83 NW 21 33 30.09 1019 10 16 N/A
2:35 am 02:35 Partly Cloudy 69 20.8 66 18.7 88 88 NW 18 30 30.12 1020 10 16 N/A
2:55 am 02:55 Clear with Nearby Thunderstorms 69 20.8 65 18.6 87 87 NNW 16 26 30.09 1019 10 16 N/A
3:15 am 03:15 Clear with Nearby Thunderstorms 69 20.6 65 18.5 88 88 NNW 9 15 30.09 1019 10 16 N/A
3:35 am 03:35 Clear with Nearby Thunderstorms 69 20.5 65 18.5 88 88 N 10 17 30.09 1019 10 16 N/A
3:55 am 03:55 Clear 68 20.1 65 18.3 89 89 NNE 7 11 30.09 1019 10 16 N/A
4:15 am 04:15 Clear 68 20.1 65 18.1 88 88 ENE 5 7 30.06 1018 10 16 N/A
4:35 am 04:35 Clear 68 20.1 65 18.1 88 88 E 5 7 30.06 1018 10 16 N/A
4:55 am 04:55 Clear 69 20.4 64 18 86 86 WNW 3 6 30.09 1019 10 16 N/A
5:15 am 05:15 Partly Cloudy 68 20 65 18.2 89 89 NNW 3 6 30.12 1020 10 16 N/A
5:35 am 05:35 Partly Cloudy 67 19.7 65 18.3 92 92 ENE 5 7 30.09 1019 10 16 N/A
5:55 am 05:55 Clear 68 20.1 64 17.8 87 87 E 7 11 30.06 1018 10 16 N/A
6:15 am 06:15 Clear 68 20.1 64 17.9 87 87 SE 6 9 30.06 1018 10 16 N/A
6:35 am 06:35 Sunny 68 20 64 18 88 88 SSE 10 17 30.06 1018 10 16 N/A
6:55 am 06:55 Sunny 68 20.1 64 17.8 87 87 SSE 12 19 30.06 1018 10 16 N/A
7:15 am 07:15 Sunny 69 20.3 64 18 87 87 SSE 13 20 30.06 1018 10 16 N/A
7:35 am 07:35 Partly Cloudy with Drizzle 68 20.2 64 18 87 87 SSE 14 22 30.06 1018 10 16 N/A
7:55 am 07:55 Sunny with Light Rain 69 20.6 64 18 85 85 SSE 15 24 30.00 1016 10 16 N/A
8:15 am 08:15 Sunny 69 20.8 64 18 84 84 SSE 10 17 30.00 1016 10 16 N/A
8:35 am 08:35 Sunny 71 21.4 65 18.3 83 83 SE 7 11 30.00 1016 10 16 N/A
8:55 am 08:55 Sunny 71 21.6 65 18.5 83 83 ESE 9 15 30.00 1016 10 16 N/A
9:15 am 09:15 Sunny 72 22.4 65 18.6 79 79 SSE 9 15 30.03 1017 10 16 N/A
9:35 am 09:35 Sunny 74 23.3 65 18.6 75 75 SSE 14 22 30.03 1017 10 16 N/A
9:55 am 09:55 Sunny 75 23.9 66 18.9 74 74 S 14 22 30.03 1017 10 16 N/A
10:15 am 10:15 Sunny 77 25 67 19.3 71 71 S 13 20 30.00 1016 10 16 N/A
10:35 am 10:35 Sunny 80 26.5 68 19.8 67 67 S 15 24 29.97 1015 10 16 N/A
10:55 am 10:55 Sunny 83 28.3 67 19.6 59 59 S 16 26 29.94 1014 10 16 N/A
11:15 am 11:15 Sunny 84 28.9 67 19.2 56 56 S 18 30 29.94 1014 10 16 N/A
11:35 am 11:35 Sunny 85 29.6 68 19.8 56 56 S 21 33 29.94 1014 10 16 N/A
11:55 am 11:55 Sunny 87 30.3 67 19.6 53 53 SSW 18 30 29.94 1014 10 16 N/A
12:15 pm 12:15 Sunny 87 30.8 66 18.7 48 48 SSW 14 22 29.94 1014 10 16 N/A
12:35 pm 12:35 Sunny 88 31.1 65 18.5 47 47 SSW 16 26 29.94 1014 10 16 N/A
12:55 pm 12:55 Sunny 89 31.6 66 19.1 47 47 SSW 16 26 29.91 1013 10 16 N/A
1:15 pm 13:15 Sunny 90 32.1 67 19.4 47 47 S 16 26 29.91 1013 10 16 N/A
1:35 pm 13:35 Sunny 91 32.5 64 18 42 42 SSW 17 28 29.91 1013 10 16 N/A
1:55 pm 13:55 Sunny 91 33 65 18.5 42 42 SSW 18 30 29.88 1012 10 16 N/A
2:15 pm 14:15 Sunny 92 33.5 65 18.2 40 40 S 15 24 29.88 1012 10 16 N/A
2:35 pm 14:35 Sunny 92 33.6 65 18.3 40 40 S 15 24 29.88 1012 10 16 N/A
2:55 pm 14:55 Sunny 92 33.5 64 17.9 39 39 S 14 22 29.88 1012 10 16 N/A
3:15 pm 15:15 Sunny 93 33.8 65 18.1 39 39 S 14 22 29.88 1012 10 16 N/A
3:35 pm 15:35 Sunny 93 34.1 64 17.5 37 37 S 14 22 29.88 1012 10 16 N/A
3:55 pm 15:55 Sunny 94 34.4 63 17.2 36 36 S 16 26 29.88 1012 10 16 N/A
4:15 pm 16:15 Sunny 94 34.2 64 17.7 37 37 S 14 22 29.85 1011 10 16 N/A
4:35 pm 16:35 Sunny 94 34.5 63 17.3 36 36 S 14 22 29.85 1011 10 16 N/A
4:55 pm 16:55 Sunny 93 34 65 18.3 39 39 S 12 19 29.85 1011 10 16 N/A
5:15 pm 17:15 Sunny 93 33.9 63 17.4 37 37 S 14 22 29.85 1011 10 16 N/A
5:35 pm 17:35 Sunny 93 33.9 64 17.9 39 39 S 15 24 29.85 1011 10 16 N/A
5:55 pm 17:55 Sunny 92 33.6 63 17.3 38 38 SSE 12 19 29.85 1011 10 16 N/A
6:15 pm 18:15 Sunny 92 33.4 65 18.4 41 41 SSE 10 17 29.85 1011 10 16 N/A
6:35 pm 18:35 Sunny 91 33 67 19.4 45 45 SSE 9 15 29.83 1010 10 16 N/A
6:55 pm 18:55 Sunny 90 32.3 66 18.8 45 45 SSE 12 19 29.83 1010 10 16 N/A
7:15 pm 19:15 Sunny 89 31.9 65 18.4 45 45 SSE 10 17 29.83 1010 10 16 N/A
7:35 pm 19:35 Sunny 88 31.2 65 18.4 46 46 SSE 10 17 29.83 1010 10 16 N/A
7:55 pm 19:55 Sunny 87 30.6 64 18 47 47 SSE 9 15 29.83 1010 10 16 N/A
8:15 pm 20:15 Sunny 87 30.4 63 17 45 45 S 14 22 29.85 1011 10 16 N/A
8:35 pm 20:35 Sunny 84 29.1 63 17.4 49 49 SSE 9 15 29.85 1011 10 16 N/A
8:55 pm 20:55 Sunny 82 28 65 18.2 55 55 SSE 8 13 29.88 1012 10 16 N/A
9:15 pm 21:15 Clear 81 27.1 65 18.2 58 58 SSE 8 13 29.88 1012 10 16 N/A
9:35 pm 21:35 Clear 81 27.1 64 17.5 56 56 SSE 10 17 29.88 1012 10 16 N/A
9:55 pm 21:55 Clear 80 26.9 62 16.8 54 54 S 12 19 29.91 1013 10 16 N/A
10:15 pm 22:15 Clear 79 26.2 62 16.4 55 55 S 8 13 29.91 1013 10 16 N/A
10:35 pm 22:35 Clear 77 25.1 62 16.5 59 59 S 7 11 29.91 1013 10 16 N/A
10:55 pm 22:55 Clear 76 24.4 62 16.6 62 62 S 8 13 29.91 1013 10 16 N/A
11:15 pm 23:15 Clear 74 23.6 63 17 67 67 S 8 13 29.91 1013 10 16 N/A
11:35 pm 23:35 Clear 73 22.9 63 17.3 71 71 S 8 13 29.94 1014 10 16 N/A
11:55 pm 23:55 Clear 73 23 63 17.3 70 70 S 7 11 29.94 1014 10 16 N/A

Powered by AerisWeather